Temperature
16 17 17 18 18 19 20 21 21 22 21 21 20 21 22 22 22 22 22 21 20 20 20 20 21 21 21 21 21 21 20 20 19 18 17 17 18 19 18 19 19 19 19 19
16 17 18 20 20 20 20 20 21 22 21 20 20 21 22 22 21 21 20 19 19 19 18 18 18 20 20 20 20 20 20 19 19 18 18 17 17 18 18 18 18 18 18 17
17 18 20 20 19 19 19 19 20 21 21 20 20 20 21 21 21 20 20 19 19 18 17 17 18 19 19 19 19 19 19 19 18 18 17 17 16 16 16 17 17 17 16 15
18 19 19 19 19 19 19 20 19 19 18 19 19 18 19 19 19 19 19 19 18 18 17 18 18 18 18 18 19 19 18 18 17 17 17 16 16 15 16 15 15 15 15 15
18 18 18 18 19 19 19 19 19 19 18 18 20 19 19 19 19 18 19 19 18 17 17 18 18 18 18 18 18 18 17 17 17 17 16 16 15 15 15 14 14 15 15 15
18 19 19 19 19 19 19 19 18 18 17 17 20 19 19 19 18 18 18 19 18 17 17 17 17 18 18 18 17 17 17 17 16 16 16 15 15 15 14 14 14 14 14 14
17 18 18 19 18 18 18 17 17 16 16 18 19 19 19 20 19 18 18 18 18 17 16 16 16 17 17 17 16 16 16 16 16 16 16 15 15 14 14 14 13 13 13 13
16 16 17 18 18 18 17 18 17 18 19 18 18 17 20 20 20 20 19 18 17 16 16 15 14 15 15 15 15 15 15 15 15 15 15 15 14 14 14 14 14 13 13 13
18 16 17 17 17 17 19 18 19 18 19 17 19 21 22 19 18 18 19 18 17 16 15 14 14 14 14 15 14 14 14 13 13 13 13 13 13 13 13 13 13 13 13 13
19 16 16 16 17 17 17 18 17 17 18 17 20 20 19 18 17 18 18 18 17 16 15 14 13 13 13 13 13 12 12 12 12 12 12 12 12 11 11 11 11 11 11 11
18 16 15 15 16 16 16 17 17 17 18 17 18 19 19 19 19 18 18 17 16 15 14 14 13 13 12 12 12 12 12 11 11 11 11 11 11 11 11 11 10 10 10 10
16 17 15 16 15 15 17 18 17 16 17 17 16 17 19 18 18 18 18 17 16 15 14 13 13 12 12 12 12 11 11 11 11 11 10 10 10 10 10 10 9 9 9 9
16 16 15 14 15 15 16 17 17 16 15 15 15 16 18 17 18 18 18 17 15 14 13 13 12 12 12 12 11 11 11 10 10 10 9 9 9 9 9 8 8 8 8 8
15 15 16 15 15 16 16 16 16 15 14 15 15 17 18 18 17 18 18 16 14 13 13 12 12 12 11 11 10 10 9 9 8 8 8 8 8 8 8 8 8 8 7 7
15 15 16 16 16 16 16 15 15 15 15 14 15 16 17 18 17 17 17 15 14 13 12 12 11 11 10 10 9 8 8 7 7 6 6 6 6 6 6 7 7 7 6 6
14 14 15 15 16 15 15 15 15 15 15 15 15 15 17 18 17 16 15 15 14 13 12 11 10 9 9 8 7 7 7 6 6 5 5 5 5 5 4 4 4 4 4 4
14 14 14 13 15 14 13 14 14 14 15 15 14 15 17 16 15 15 15 14 14 12 11 9 9 8 8 7 6 6 6 5 5 4 4 4 3 3 2 2 2 2 2 3
13 13 12 12 12 10 13 16 16 15 15 15 15 16 16 15 14 14 14 13 12 10 9 8 8 7 7 6 5 5 4 4 3 3 2 2 2 1 1 1 1 1 1 1
12 12 12 10 11 11 14 15 15 15 14 15 15 15 15 13 13 12 11 10 9 8 7 7 6 5 5 4 3 3 2 1 1 1 1 0 0 0 0 0 0 0 0 1
11 11 11 10 9 9 14 14 14 13 13 15 15 14 13 11 9 9 8 8 7 6 5 5 4 3 2 2 1 1 0 -0 -0 -0 -1 -1 -1 -1 -1 -1 -1 -1 -1 -0
10 9 9 9 9 10 14 14 14 12 12 13 14 13 13 11 9 8 7 6 6 5 4 4 2 1 1 0 -0 -0 -1 -1 -1 -1 -1 -1 -2 -2 -2 -2 -2 -2 -2 -1
11 9 9 10 9 10 15 15 13 13 14 13 12 12 12 10 8 7 6 5 4 3 3 2 1 1 1 0 0 -0 -1 -1 -1 -2 -2 -2 -3 -3 -3 -3 -3 -3 -2 -2
11 12 11 10 10 13 15 14 13 12 12 12 11 11 10 9 7 6 5 4 3 2 2 1 1 1 1 0 -1 -1 -1 -2 -3 -3 -3 -3 -4 -4 -4 -4 -4 -4 -3 -3
11 12 11 11 12 13 13 12 10 10 10 9 9 9 8 7 6 5 4 3 2 2 1 1 1 1 0 -1 -2 -2 -2 -3 -4 -4 -4 -4 -4 -4 -4 -5 -5 -4 -4 -4
10 10 10 10 11 11 12 11 9 9 8 8 7 7 6 5 4 3 2 1 1 1 1 0 -0 -1 -1 -2 -2 -2 -3 -4 -4 -4 -4 -4 -5 -5 -5 -5 -5 -5 -5 -5
8 8 8 8 10 9 10 9 9 8 7 6 5 5 4 3 2 2 0 -0 -0 -0 -0 -1 -1 -2 -2 -2 -3 -3 -4 -5 -5 -5 -5 -5 -5 -6 -6 -6 -6 -6 -6 -6
Wind_Speed
11 11 12 12 15 13 11 7 10 3 8 1 8 9 1 7 7 7 9 12 12 11 12 12 13 13 12 10 7 5 9 10 9 7 7 8 8 7 7 8 10 11 12 12
12 13 14 13 10 6 7 8 7 2 5 0 7 4 5 4 5 9 11 11 9 9 9 10 11 12 12 12 11 10 6 5 7 8 7 6 6 7 8 8 11 10 10 9
12 10 12 9 6 4 7 7 4 2 1 6 5 4 7 7 10 11 10 9 8 9 10 10 11 11 11 11 11 9 10 7 3 5 5 4 4 5 6 7 7 8 9 8
10 6 8 8 7 7 7 1 5 6 6 5 8 4 9 9 9 9 8 7 8 9 9 9 9 10 10 10 9 9 9 9 7 3 2 6 6 6 8 6 6 8 11 13
6 8 9 8 7 4 4 2 1 4 7 6 5 4 8 11 9 9 8 8 8 8 9 9 9 9 9 9 9 9 9 10 9 7 6 4 5 6 6 6 8 8 9 12
7 5 5 4 5 3 0 4 6 5 4 5 4 2 7 10 12 11 9 9 8 8 8 8 8 8 8 9 9 10 11 11 11 10 8 7 7 7 8 9 8 7 6 6
7 5 3 2 5 2 5 5 4 5 5 4 3 2 6 10 14 13 11 9 8 8 7 6 7 8 9 10 10 10 10 10 10 10 10 9 9 8 8 8 7 8 7 6
7 6 6 3 3 6 8 5 4 2 0 3 5 6 4 13 12 12 10 9 8 8 6 6 7 7 8 9 10 10 10 10 10 10 9 9 9 6 6 7 8 8 7 7
7 6 5 3 3 5 3 4 2 3 1 2 5 5 5 11 11 10 9 9 8 7 7 7 6 6 6 7 7 7 8 8 9 9 9 9 9 8 8 8 7 6 7 8
4 7 6 3 3 2 4 3 1 3 2 4 5 5 5 13 11 11 10 9 8 8 7 6 5 3 3 4 5 6 7 7 7 9 9 8 9 9 9 9 10 10 10 10
5 6 5 5 6 5 4 3 4 4 3 3 3 1 5 6 9 10 8 9 8 8 6 4 3 2 2 3 5 6 6 7 8 9 9 10 10 10 11 10 11 12 11 12
4 1 5 3 3 5 2 4 4 3 3 3 3 3 5 9 9 8 7 8 9 9 6 4 3 1 2 4 5 7 8 8 8 9 9 9 9 9 10 10 11 11 12 12
3 1 5 3 1 1 2 4 4 4 3 3 4 5 2 7 7 7 7 8 8 8 6 3 2 2 4 4 6 8 8 8 9 9 9 9 9 10 10 11 12 12 12 13
3 2 2 3 3 3 4 4 5 4 4 6 9 10 5 5 5 4 1 7 7 7 6 2 3 5 6 7 8 9 9 9 9 9 9 10 9 10 10 11 12 13 13 13
3 2 3 3 2 3 5 8 9 11 10 8 8 11 12 9 9 6 3 7 6 5 5 4 5 6 7 8 9 9 9 10 10 10 10 9 9 10 11 12 13 14 14 15
2 2 3 3 5 6 9 13 14 13 15 16 16 18 14 11 3 2 1 3 5 6 6 6 7 8 9 9 8 8 9 10 10 10 10 9 10 10 11 12 13 13 14 14
2 2 2 3 3 6 9 12 14 11 12 10 12 12 8 5 3 3 2 1 2 6 7 8 10 10 8 8 8 8 9 10 10 10 10 10 11 12 11 12 13 12 12 13
1 1 1 3 4 8 9 6 4 7 9 10 10 9 7 4 5 4 4 4 7 9 10 10 8 7 7 8 8 9 10 10 10 10 10 11 12 12 13 12 12 12 12 12
2 3 4 3 4 8 10 9 3 3 5 8 10 8 2 7 6 5 8 12 12 10 8 7 7 7 7 7 8 8 9 9 9 9 10 11 12 13 13 13 12 13 13 12
1 3 4 5 4 6 6 5 8 6 6 4 1 1 5 5 1 2 7 10 10 8 8 8 8 7 7 7 7 7 8 8 8 9 10 11 11 13 13 13 13 12 12 12
4 4 6 6 6 8 6 6 5 1 4 3 4 2 3 4 3 6 8 9 9 9 9 8 6 5 5 5 5 7 8 8 8 9 11 11 12 13 14 12 11 13 14 14
6 6 6 4 6 7 3 2 3 6 1 2 1 2 3 5 8 8 8 8 7 6 5 4 3 3 5 5 6 7 8 9 9 10 11 12 12 13 15 13 12 13 15 15
6 6 4 7 8 6 3 5 7 8 7 5 3 3 4 4 6 7 6 5 3 3 2 2 3 5 5 5 6 8 9 9 10 10 11 11 12 11 11 12 13 13 12 12
5 5 6 7 6 7 10 8 9 8 6 7 7 6 4 5 6 5 4 2 1 1 1 2 4 5 6 6 7 8 9 9 10 11 11 11 11 11 10 10 11 12 12 11
6 5 7 12 11 11 8 5 6 4 5 5 5 4 4 5 5 4 3 2 1 2 3 4 5 7 7 7 8 9 9 9 10 10 11 11 10 11 11 11 10 12 10 13
6 8 9 9 9 10 11 8 5 4 2 5 6 5 4 3 3 3 1 0 1 3 4 5 7 8 8 9 9 9 9 9 10 10 10 9 10 10 10 11 13 15 17 25
Wind_Direction
182 196 205 206 212 245 303 251 243 199 114 170 258 261 330 27 7 23 47 49 42 35 28 22 15 9 3 353 332 246 206 197 188 181 184 197 217 225 226 224 222 218 218 214
178 206 208 217 207 231 287 288 267 179 104 160 288 287 89 84 73 63 70 66 53 47 42 36 32 23 12 1 352 345 311 233 196 191 193 197 207 221 225 228 229 224 222 220
180 198 202 192 148 193 254 289 319 55 133 207 263 206 124 107 97 88 86 85 68 55 47 37 34 30 21 10 358 354 348 334 295 183 179 202 226 247 247 244 245 237 231 232
186 133 158 163 178 210 216 82 7 352 316 231 209 198 156 136 113 107 103 83 66 57 52 45 40 33 24 9 359 359 1 0 355 348 211 215 224 241 250 251 242 230 221 224
127 150 160 179 185 234 68 97 285 296 294 297 223 249 174 152 141 125 123 106 83 68 57 50 46 45 32 15 8 8 17 18 7 0 347 299 258 254 260 259 254 250 237 226
99 136 156 155 83 35 59 239 237 246 253 265 186 228 193 180 159 140 131 116 98 82 66 54 46 52 40 26 22 24 29 25 14 8 357 344 321 307 303 297 292 288 280 255
118 106 66 80 127 202 240 244 223 203 214 214 119 228 260 159 146 145 140 127 107 89 78 55 38 40 38 31 26 26 28 24 16 15 11 1 351 338 324 316 310 306 299 291
137 158 173 195 220 209 206 252 294 307 250 125 173 221 234 137 130 127 133 129 113 90 85 75 51 47 45 37 27 22 22 20 13 12 8 1 359 354 342 335 331 325 322 317
146 123 92 53 342 324 204 231 345 320 326 317 243 196 142 134 133 141 153 140 122 100 88 88 74 62 62 50 33 22 17 15 10 4 1 354 354 355 345 336 333 330 329 328
79 123 150 154 225 313 335 348 249 232 242 245 240 229 207 164 164 169 170 148 124 101 92 91 89 80 63 53 31 20 16 12 4 360 354 347 346 346 343 343 347 346 339 335
15 122 138 177 210 197 184 234 265 289 313 272 272 272 35 120 165 166 138 112 109 110 116 119 117 116 67 34 24 17 11 14 7 3 356 351 348 352 354 353 349 344 338 334
12 139 144 135 88 353 279 234 209 230 243 237 293 292 64 84 93 103 122 138 137 136 141 149 153 92 36 19 21 25 19 17 11 3 352 346 348 353 350 345 340 337 333 329
352 344 127 122 160 238 286 283 307 323 346 266 237 256 107 122 147 172 185 162 141 146 152 151 108 45 20 17 34 32 19 12 7 354 348 345 348 349 346 342 337 332 327 324
347 358 26 87 96 140 193 214 235 245 227 243 236 256 240 201 216 252 148 129 137 150 152 133 45 26 19 22 33 28 12 8 0 349 346 342 346 347 343 338 332 327 324 322
3 339 30 29 6 309 266 249 235 231 234 241 255 268 279 296 311 328 98 133 142 150 126 78 43 19 15 28 27 19 8 359 348 343 340 335 340 341 337 332 327 325 323 322
37 338 357 276 247 255 264 253 247 249 249 253 266 274 280 294 314 17 68 156 178 155 103 64 35 28 31 27 19 12 2 347 338 338 330 334 342 337 329 323 319 318 318 319
128 14 357 287 3 335 267 247 237 231 232 240 252 260 281 295 273 230 211 211 212 128 88 62 53 45 28 13 10 5 351 336 333 329 329 343 340 329 322 319 318 316 318 315
358 161 215 287 306 245 245 270 234 242 248 239 252 275 310 5 28 32 36 36 60 73 66 61 48 28 15 6 6 358 342 331 327 326 342 340 331 324 322 320 319 319 318 315
256 220 208 209 246 268 271 269 225 242 275 262 265 280 53 68 19 8 54 76 79 73 69 59 41 21 4 1 0 345 326 323 321 337 337 328 323 320 320 319 319 317 316 315
254 237 229 202 219 247 271 56 50 28 287 279 301 72 118 101 347 85 74 80 76 67 60 47 29 8 1 358 349 328 316 314 323 328 321 318 317 317 317 314 313 313 314 311
162 198 223 228 229 258 284 101 73 252 279 61 46 47 154 172 150 105 83 75 66 59 51 38 20 6 347 331 327 313 310 314 321 322 320 319 319 318 315 313 313 314 314 311
192 197 208 212 221 248 2 55 240 261 290 192 212 182 136 107 97 92 85 79 71 65 55 35 1 327 314 322 332 320 315 316 320 321 320 318 317 317 319 314 314 315 314 310
236 223 202 199 224 248 325 330 347 347 341 1 21 76 101 98 97 101 96 92 86 85 65 13 324 309 312 322 326 311 308 314 318 317 314 312 312 312 314 316 316 316 313 313
253 269 276 282 275 311 330 11 39 40 41 41 45 50 73 103 114 122 132 150 190 111 25 327 315 309 306 312 314 307 309 314 315 313 311 310 313 314 313 312 311 311 312 314
254 305 281 276 288 306 307 351 23 72 105 98 84 70 89 125 138 152 170 195 273 351 338 324 312 303 305 314 313 308 308 311 310 309 310 313 313 312 310 307 305 305 303 311
213 231 250 262 282 293 301 321 17 27 89 140 133 115 85 98 130 150 173 70 351 338 329 314 306 305 307 308 303 300 301 305 309 310 310 309 308 307 306 306 306 303 306 309
Height
1489 1494 1494 1492 1492 1490 1487 1486 1488 1482 1482 1483 1485 1482 1477 1476 1476 1475 1476 1476 1477 1478 1477 1475 1474 1473 1473 1474 1475 1476 1477 1477 1478 1478 1479 1479 1479 1480 1480 1480 1480 1480 1479 1478
1488 1489 1484 1484 1484 1486 1486 1488 1486 1481 1479 1482 1483 1480 1477 1477 1477 1478 1479 1480 1481 1480 1478 1476 1473 1471 1470 1469 1469 1470 1472 1474 1474 1474 1475 1475 1475 1475 1474 1474 1474 1473 1473 1472
1481 1480 1479 1480 1484 1487 1488 1491 1487 1483 1480 1480 1485 1484 1480 1478 1478 1481 1482 1483 1482 1481 1479 1476 1473 1471 1470 1468 1466 1466 1467 1469 1471 1472 1472 1472 1472 1471 1470 1469 1469 1469 1469 1468
1475 1473 1476 1480 1484 1485 1491 1488 1488 1487 1491 1488 1485 1495 1485 1480 1481 1482 1483 1483 1483 1481 1479 1477 1475 1473 1471 1469 1467 1466 1465 1466 1468 1469 1470 1469 1469 1468 1467 1467 1467 1465 1464 1462
1473 1474 1477 1482 1482 1484 1488 1487 1487 1488 1491 1492 1481 1488 1487 1479 1483 1483 1482 1483 1482 1481 1480 1478 1477 1475 1473 1471 1469 1467 1466 1465 1466 1466 1467 1467 1466 1465 1464 1463 1462 1460 1458 1456
1471 1473 1476 1479 1481 1485 1487 1489 1488 1488 1493 1499 1481 1489 1485 1477 1477 1480 1481 1481 1482 1482 1481 1480 1479 1477 1475 1473 1471 1470 1468 1467 1466 1465 1465 1464 1463 1462 1460 1458 1457 1455 1454 1452
1477 1478 1479 1480 1486 1488 1490 1495 1501 1504 1505 1494 1481 1485 1480 1466 1468 1472 1476 1479 1481 1482 1481 1480 1479 1477 1475 1473 1472 1471 1470 1469 1467 1466 1464 1463 1461 1460 1458 1455 1453 1451 1449 1448
1480 1488 1481 1481 1483 1486 1487 1487 1496 1498 1493 1489 1487 1489 1470 1462 1464 1469 1474 1478 1480 1481 1481 1480 1479 1477 1475 1473 1472 1472 1471 1470 1468 1467 1465 1463 1461 1459 1457 1454 1451 1449 1446 1444
1470 1482 1481 1482 1483 1482 1481 1483 1480 1487 1485 1494 1481 1467 1462 1461 1465 1469 1473 1476 1478 1480 1480 1480 1479 1477 1475 1473 1472 1472 1471 1469 1468 1466 1465 1463 1460 1458 1455 1453 1450 1447 1444 1441
1459 1481 1483 1484 1484 1482 1482 1479 1485 1490 1493 1497 1479 1473 1472 1469 1468 1469 1471 1473 1476 1478 1479 1479 1478 1477 1475 1473 1472 1472 1471 1469 1468 1466 1464 1462 1459 1457 1454 1451 1448 1444 1441 1437
1462 1476 1486 1486 1485 1483 1484 1484 1483 1483 1484 1494 1491 1479 1462 1460 1462 1466 1469 1472 1474 1476 1476 1477 1477 1476 1475 1474 1472 1472 1471 1469 1466 1464 1462 1459 1457 1454 1451 1448 1445 1441 1438 1434
1467 1470 1483 1483 1481 1480 1477 1477 1481 1491 1489 1487 1492 1485 1460 1460 1462 1465 1468 1469 1470 1472 1473 1474 1475 1475 1475 1474 1472 1471 1470 1467 1465 1462 1460 1457 1454 1451 1448 1445 1441 1438 1434 1430
1469 1472 1485 1491 1490 1483 1480 1478 1478 1482 1488 1489 1494 1484 1463 1461 1463 1464 1465 1466 1468 1470 1472 1473 1474 1473 1473 1472 1471 1469 1467 1465 1463 1460 1457 1454 1451 1448 1444 1441 1437 1434 1429 1425
1471 1474 1479 1484 1483 1479 1481 1480 1480 1484 1492 1490 1483 1474 1464 1463 1464 1464 1464 1465 1467 1469 1471 1472 1472 1472 1471 1471 1469 1467 1465 1462 1460 1457 1454 1451 1448 1444 1440 1437 1433 1429 1425 1420
1472 1476 1474 1476 1476 1477 1479 1480 1479 1482 1481 1484 1475 1470 1463 1461 1462 1462 1463 1464 1466 1468 1469 1470 1470 1470 1470 1469 1467 1465 1463 1460 1458 1455 1451 1448 1445 1441 1437 1432 1428 1424 1419 1415
1475 1478 1478 1479 1476 1477 1479 1475 1475 1475 1473 1472 1471 1467 1459 1460 1460 1461 1461 1463 1464 1465 1466 1467 1468 1468 1468 1466 1465 1463 1460 1458 1456 1452 1449 1445 1440 1436 1431 1427 1422 1418 1414 1409
1477 1479 1483 1485 1477 1480 1482 1467 1466 1467 1463 1465 1468 1462 1457 1458 1458 1458 1459 1461 1463 1463 1464 1465 1465 1465 1465 1464 1462 1459 1457 1455 1453 1450 1446 1441 1436 1431 1426 1421 1417 1412 1408 1403
1478 1481 1486 1489 1487 1496 1471 1452 1454 1456 1456 1457 1457 1456 1456 1456 1457 1457 1459 1461 1462 1462 1462 1462 1463 1463 1462 1461 1459 1458 1456 1453 1450 1447 1443 1438 1432 1427 1422 1417 1412 1406 1401 1397
1479 1482 1486 1491 1490 1481 1462 1451 1453 1456 1457 1453 1453 1453 1454 1455 1456 1458 1459 1459 1460 1462 1462 1462 1462 1461 1461 1459 1458 1456 1453 1451 1447 1443 1438 1434 1428 1422 1416 1411 1406 1400 1395 1390
1481 1482 1486 1487 1492 1489 1463 1456 1454 1458 1461 1451 1450 1452 1454 1455 1462 1462 1461 1459 1459 1460 1460 1460 1460 1460 1459 1458 1455 1452 1450 1447 1442 1437 1432 1427 1422 1416 1410 1405 1400 1395 1390 1385
1483 1485 1486 1485 1487 1475 1458 1457 1459 1469 1462 1454 1453 1453 1454 1456 1458 1459 1459 1458 1458 1458 1458 1457 1457 1456 1455 1453 1450 1447 1444 1441 1436 1430 1425 1421 1416 1410 1405 1400 1395 1390 1384 1379
1475 1480 1482 1480 1482 1478 1456 1457 1461 1460 1454 1453 1452 1453 1454 1455 1456 1456 1457 1457 1456 1455 1454 1453 1452 1452 1450 1448 1445 1441 1438 1434 1429 1424 1420 1415 1410 1405 1400 1395 1390 1385 1379 1373
1468 1466 1466 1470 1469 1458 1456 1457 1457 1455 1453 1452 1452 1452 1453 1454 1454 1454 1454 1454 1453 1452 1451 1449 1449 1447 1446 1443 1440 1436 1432 1428 1424 1419 1414 1410 1404 1399 1395 1390 1384 1379 1374 1369
1462 1460 1461 1460 1454 1454 1455 1454 1453 1453 1453 1453 1453 1453 1452 1452 1452 1452 1451 1450 1449 1448 1447 1447 1445 1443 1441 1438 1436 1432 1428 1423 1418 1413 1408 1403 1398 1393 1388 1384 1380 1375 1370 1365
1461 1459 1459 1457 1454 1454 1454 1453 1450 1449 1448 1448 1448 1449 1449 1448 1448 1448 1447 1446 1446 1445 1445 1443 1441 1438 1436 1433 1430 1427 1423 1418 1413 1408 1403 1398 1393 1388 1383 1378 1375 1371 1367 1363
1454 1457 1457 1454 1452 1452 1450 1449 1447 1445 1444 1444 1444 1444 1444 1444 1444 1443 1443 1443 1443 1442 1441 1439 1437 1434 1431 1428 1425 1422 1418 1414 1409 1403 1398 1393 1388 1383 1378 1373 1368 1364 1361 1355